La Paz, Mexico

10:28 PM MDT on September 29, 2016 (GMT -0600)
Gen Manuel Marquez De Leon

Weather History for MMLP - December, 2013

Change the Weather History Date:

Sunday, December 1, 2013

  Actual Average Record
Temperature  
Mean Temperature 74 °F -  
Max Temperature 79 °F 78 °F 89 °F (1999)
Min Temperature 69 °F 58 °F 48 °F (2000)
Cooling Degree Days 9    
Growing Degree Days 24 (Base 50)    
Moisture  
Dew Point 61 °F    
Average Humidity 64    
Maximum Humidity 90    
Minimum Humidity 48    
Precipitation  
Precipitation 0.00 in - - ()
Sea Level Pressure  
Sea Level Pressure 30.08 in    
Wind  
Wind Speed 6 mph ()    
Max Wind Speed 14 mph    
Max Gust Speed -    
Visibility 10.3 miles    
Events      
Averages and records for this station are not official NWS values.
T = Trace of Precipitation, MM = Missing Value Source: Averaged Metar Reports

Daily Weather History Graph

Daily Weather History Graph

Search for Another Location

Airport or City:

Trip Planner

Search our weather history database for the weather conditions in past years. The results will help you decide how hot, cold, wet, or windy it might be!

Date:

Astronomy

Dec. 01, 2013 Rise Set
Actual Time 6:47 AM MST 5:33 PM MST
Civil Twilight 6:23 AM MST 5:57 PM MST
Nautical Twilight 5:55 AM MST 6:25 PM MST
Astronomical Twilight 5:27 AM MST 6:53 PM MST
Moon 5:17 AM MST (12/1) 4:39 PM MST (12/1)
Length of Visible Light 11h 34m
Length of Day
10h 45m
Waning Crescent, 2% of the Moon is Illuminated
Dec 1
Waning Crescent
Dec 2
New
Dec 9
First Quarter
Dec 17
Full
Dec 25
Last Quarter

Hourly Weather History & Observations

Time (MST) Temp. Dew Point Humidity Pressure Visibility Wind Dir Wind Speed Gust Speed Precip Events Conditions
4:40 AM 71 °F 69 °F 90% 30.09 in 2 mi North 4.5 mph - -   Partly Cloudy
4:50 AM 76 °F 69 °F 73% 29.92 in 2 mi North 4.5 mph - -   Scattered Clouds
4:53 AM 68.0 °F 60.8 °F 78% 30.17 in 10.0 mi Calm Calm - N/A   Mostly Cloudy
7:40 AM 71 °F 64 °F 73% 30.11 in 16 mi ENE 2.2 mph - -   Partly Cloudy
7:42 AM 64.4 °F 57.2 °F 77% 30.21 in 10.0 mi Calm Calm - N/A   Mostly Cloudy
7:50 AM 78 °F 69 °F 67% 29.96 in 12 mi North 6.7 mph - -  
8:40 AM 71.6 °F 62.6 °F 73% 30.09 in 10.0 mi NNE 8.1 mph - N/A   Scattered Clouds
9:40 AM 75.2 °F 60.8 °F 61% 30.11 in 10.0 mi North 11.5 mph - N/A   Mostly Cloudy
10:45 AM 77 °F 61 °F 48% 30.08 in 16 mi NNE 8.9 mph - -   Mostly Cloudy
10:46 AM 75.2 °F 59.0 °F 57% 30.24 in 10.0 mi East 10.4 mph - N/A   Mostly Cloudy
11:40 AM 78.8 °F 59.0 °F 51% 30.08 in 10.0 mi NE 9.2 mph - N/A   Mostly Cloudy
12:41 PM 77.0 °F 57.2 °F 50% 30.04 in 10.0 mi NNE 12.7 mph - N/A   Mostly Cloudy
1:40 PM 77.0 °F 59.0 °F 54% 30.17 in 10.0 mi NNE 13.8 mph - N/A   Overcast
1:45 PM 77 °F 62 °F 51% 30.01 in 19 mi North 8.9 mph - -   Mostly Cloudy
2:49 PM 75.2 °F 60.8 °F 61% 30.01 in 10.0 mi North 13.8 mph - N/A   Overcast
3:52 PM 75.2 °F 60.8 °F 61% 30.02 in 10.0 mi North 13.8 mph - N/A   Overcast
4:47 PM 75.2 °F 59.0 °F 57% 30.12 in 10.0 mi NNE 13.8 mph - N/A   Overcast
4:50 PM 75 °F 62 °F 55% 30.02 in 19 mi ENE 6.7 mph - -   Mostly Cloudy
5:51 PM 73.4 °F 60.8 °F 65% 30.03 in 10.0 mi NNE 9.2 mph - N/A   Overcast
6:45 PM 71.6 °F 60.8 °F 69% 30.04 in 10.0 mi NNE 6.9 mph - N/A   Mostly Cloudy
7:50 PM 73 °F 62 °F 59% 30.04 in 2 mi NW 4.5 mph - -   Mostly Cloudy
7:51 PM 71.6 °F 60.8 °F 69% 30.17 in 10.0 mi NE 9.2 mph - N/A   Mostly Cloudy
8:41 PM 71.6 °F 60.8 °F 69% 30.05 in 10.0 mi NNE 6.9 mph - N/A   Mostly Cloudy
9:50 PM 71.6 °F 59.0 °F 64% 30.06 in 10.0 mi North 6.9 mph - N/A   Mostly Cloudy
10:48 PM 71.6 °F 59.0 °F 64% 30.17 in 10.0 mi Calm Calm - N/A   Mostly Cloudy